When you browse on this site, cookies collect data to enhance your experience and personalize the content and advertising you see.
Visit our Privacy Policy to learn more. By continuing to use the site, you agree to this use of cookies and data.
  • en France
  • Liste des pays
  • À 7 jours
  • Température de l'eau
  • Carte satellitaire
  • Carte météo
  • Widgets météo
  • user-avatar
    Se connecter

    Météo par heure à Kranevo

    Ce jour, 27 Mai, Lundi

    Heure Température Précipitation Vent Pression Humidité
    00:00 +18°C° 0 mm 1 m/s 758 mmHg 84%
    01:00 +18°C° 0 mm 1 m/s 757 mmHg 84%
    02:00 +18°C° 0 mm 1 m/s 757 mmHg 83%
    03:00 +18°C° 0 mm 1 m/s 757 mmHg 84%
    04:00 +18°C° 0 mm 1 m/s 757 mmHg 84%
    05:00 +18°C° 0 mm 1 m/s 757 mmHg 84%
    06:00 +18°C° 0 mm 2 m/s 758 mmHg 80%
    07:00 +20°C° 0 mm 2 m/s 758 mmHg 76%
    08:00 +21°C° 0 mm 2 m/s 758 mmHg 72%
    09:00 +22°C° 0 mm 3 m/s 758 mmHg 69%
    10:00 +24°C° 0 mm 3 m/s 758 mmHg 66%
    11:00 +25°C° 0 mm 4 m/s 758 mmHg 63%
    12:00 +25°C° 0 mm 4 m/s 758 mmHg 63%
    13:00 +23°C° 0 mm 4 m/s 758 mmHg 63%
    14:00 +23°C° 0 mm 5 m/s 757 mmHg 63%
    15:00 +23°C° 0 mm 5 m/s 757 mmHg 66%
    16:00 +22°C° 0 mm 4 m/s 757 mmHg 68%
    17:00 +22°C° 0 mm 4 m/s 757 mmHg 71%
    18:00 +20°C° 0 mm 4 m/s 757 mmHg 77%
    19:00 +19°C° 0 mm 3 m/s 757 mmHg 83%
    20:00 +17°C° 0 mm 3 m/s 757 mmHg 90%
    21:00 +17°C° 0 mm 3 m/s 757 mmHg 90%
    22:00 +17°C° 0 mm 3 m/s 757 mmHg 91%
    23:00 +17°C° 0 mm 2 m/s 757 mmHg 92%

    Demain, 28 Mai, Mardi

    Heure Température Précipitation Vent Pression Humidité
    00:00 +17°C° 0 mm 2 m/s 756 mmHg 92%
    01:00 +16°C° 0 mm 2 m/s 756 mmHg 93%
    02:00 +16°C° 0 mm 2 m/s 756 mmHg 93%
    03:00 +16°C° 0 mm 2 m/s 755 mmHg 93%
    04:00 +16°C° 0 mm 2 m/s 755 mmHg 93%
    05:00 +16°C° 0 mm 2 m/s 755 mmHg 92%
    06:00 +17°C° 0 mm 3 m/s 755 mmHg 88%
    07:00 +19°C° 0 mm 3 m/s 755 mmHg 83%
    08:00 +20°C° 0 mm 3 m/s 755 mmHg 78%
    09:00 +21°C° 0 mm 3 m/s 754 mmHg 74%
    10:00 +24°C° 0 mm 3 m/s 754 mmHg 70%
    11:00 +25°C° 0 mm 3 m/s 754 mmHg 67%
    12:00 +25°C° 0 mm 3 m/s 754 mmHg 66%
    13:00 +25°C° 0 mm 4 m/s 753 mmHg 65%
    14:00 +26°C° 0 mm 4 m/s 753 mmHg 64%
    15:00 +25°C° 0 mm 4 m/s 753 mmHg 67%
    16:00 +23°C° 0 mm 4 m/s 752 mmHg 69%
    17:00 +23°C° 0 mm 4 m/s 752 mmHg 72%
    18:00 +22°C° 0 mm 3 m/s 752 mmHg 76%
    19:00 +20°C° 0 mm 3 m/s 752 mmHg 80%
    20:00 +19°C° 0 mm 3 m/s 752 mmHg 84%
    21:00 +19°C° 0 mm 3 m/s 752 mmHg 86%
    22:00 +19°C° 0 mm 3 m/s 752 mmHg 87%
    23:00 +19°C° 0 mm 4 m/s 752 mmHg 88%

    Après-demain, 29 Mai, Mercredi

    Heure Température Précipitation Vent Pression Humidité
    00:00 +18°C° 0 mm 4 m/s 752 mmHg 87%
    01:00 +18°C° 0 mm 4 m/s 752 mmHg 86%
    02:00 +18°C° 0 mm 4 m/s 752 mmHg 85%
    03:00 +17°C° 0 mm 3 m/s 752 mmHg 84%
    04:00 +17°C° 0 mm 3 m/s 752 mmHg 83%
    05:00 +16°C° 0 mm 3 m/s 752 mmHg 82%
    06:00 +18°C° 0 mm 3 m/s 752 mmHg 78%
    07:00 +20°C° 0 mm 3 m/s 752 mmHg 74%
    08:00 +22°C° 0 mm 3 m/s 752 mmHg 69%
    09:00 +25°C° 0 mm 3 m/s 753 mmHg 65%
    10:00 +26°C° 0 mm 3 m/s 753 mmHg 62%
    11:00 +28°C° 0 mm 3 m/s 753 mmHg 58%
    12:00 +28°C° 0 mm 3 m/s 753 mmHg 56%
    13:00 +28°C° 0 mm 4 m/s 753 mmHg 55%
    14:00 +29°C° 0 mm 4 m/s 753 mmHg 54%
    15:00 +28°C° 0 mm 4 m/s 752 mmHg 58%
    16:00 +27°C° 0 mm 4 m/s 752 mmHg 61%
    17:00 +27°C° 0 mm 4 m/s 752 mmHg 65%
    18:00 +25°C° 0 mm 4 m/s 752 mmHg 69%
    19:00 +22°C° 0 mm 3 m/s 753 mmHg 73%
    20:00 +21°C° 0 mm 2 m/s 753 mmHg 78%
    21:00 +20°C° 0 mm 2 m/s 753 mmHg 77%
    22:00 +20°C° 0 mm 2 m/s 753 mmHg 77%
    23:00 +21°C° 0 mm 1 m/s 754 mmHg 77%

    30 Mai, Jeudi

    Heure Température Précipitation Vent Pression Humidité
    00:00 +21°C° 0 mm 1 m/s 754 mmHg 78%
    01:00 +20°C° 0 mm 1 m/s 754 mmHg 79%
    02:00 +20°C° 0 mm 1 m/s 754 mmHg 79%
    03:00 +20°C° 0 mm 1 m/s 754 mmHg 80%
    04:00 +19°C° 0 mm 1 m/s 754 mmHg 81%
    05:00 +17°C° 0 mm 0 m/s 754 mmHg 81%
    06:00 +19°C° 0 mm 0 m/s 754 mmHg 76%
    07:00 +21°C° 0 mm 0 m/s 754 mmHg 71%
    08:00 +23°C° 0 mm 0 m/s 754 mmHg 66%
    09:00 +26°C° 0 mm 1 m/s 754 mmHg 62%
    10:00 +27°C° 0 mm 1 m/s 754 mmHg 58%
    11:00 +28°C° 0 mm 2 m/s 754 mmHg 54%
    12:00 +27°C° 0 mm 2 m/s 754 mmHg 55%
    13:00 +27°C° 0 mm 3 m/s 754 mmHg 57%
    14:00 +27°C° 0 mm 4 m/s 754 mmHg 59%
    15:00 +26°C° 0 mm 4 m/s 753 mmHg 61%
    16:00 +25°C° 0 mm 3 m/s 753 mmHg 63%
    17:00 +24°C° 0 mm 3 m/s 753 mmHg 65%
    18:00 +23°C° 0 mm 2 m/s 753 mmHg 70%
    19:00 +21°C° 0 mm 1 m/s 753 mmHg 74%
    20:00 +18°C° 0 mm 0 m/s 753 mmHg 78%
    21:00 +19°C° 0 mm 1 m/s 753 mmHg 76%
    22:00 +19°C° 0 mm 1 m/s 753 mmHg 74%
    23:00 +19°C° 0 mm 1 m/s 754 mmHg 71%

    31 Mai, Vendredi

    Heure Température Précipitation Vent Pression Humidité
    00:00 +18°C° 0 mm 2 m/s 753 mmHg 77%
    01:00 +18°C° 0 mm 2 m/s 753 mmHg 82%
    02:00 +17°C° 0 mm 3 m/s 753 mmHg 88%
    03:00 +17°C° 0 mm 4 m/s 753 mmHg 90%
    04:00 +17°C° 0 mm 4 m/s 753 mmHg 93%
    05:00 +17°C° 0 mm 4 m/s 753 mmHg 95%
    06:00 +18°C° 0 mm 4 m/s 753 mmHg 90%
    07:00 +19°C° 0 mm 4 m/s 753 mmHg 86%
    08:00 +21°C° 0 mm 4 m/s 753 mmHg 81%
    09:00 +22°C° 0 mm 3 m/s 753 mmHg 77%
    10:00 +24°C° 0 mm 3 m/s 753 mmHg 74%
    11:00 +25°C° 0 mm 3 m/s 753 mmHg 70%
    12:00 +25°C° 0.1 mm 2 m/s 752 mmHg 70%
    13:00 +26°C° 0.1 mm 2 m/s 752 mmHg 69%
    14:00 +26°C° 0.1 mm 1 m/s 752 mmHg 69%
    15:00 +26°C° 0.8 mm 1 m/s 752 mmHg 70%
    16:00 +26°C° 0.8 mm 1 m/s 752 mmHg 71%
    17:00 +26°C° 0.8 mm 1 m/s 752 mmHg 72%
    18:00 +24°C° 1.6 mm 2 m/s 752 mmHg 76%
    19:00 +23°C° 1.6 mm 2 m/s 752 mmHg 81%
    20:00 +20°C° 1.6 mm 3 m/s 752 mmHg 86%
    21:00 +20°C° 0.2 mm 3 m/s 751 mmHg 88%
    22:00 +19°C° 0.2 mm 4 m/s 751 mmHg 89%
    23:00 +18°C° 0.2 mm 4 m/s 751 mmHg 90%

    1 Juin, Samedi

    Heure Température Précipitation Vent Pression Humidité
    00:00 +17°C° 0.2 mm 5 m/s 751 mmHg 90%
    01:00 +16°C° 0.2 mm 5 m/s 751 mmHg 90%
    02:00 +16°C° 0.2 mm 6 m/s 751 mmHg 90%
    03:00 +16°C° 0 mm 6 m/s 751 mmHg 90%
    04:00 +15°C° 0 mm 6 m/s 752 mmHg 90%
    05:00 +15°C° 0 mm 6 m/s 752 mmHg 90%
    06:00 +16°C° 0 mm 6 m/s 752 mmHg 87%
    07:00 +17°C° 0 mm 6 m/s 752 mmHg 85%
    08:00 +19°C° 0 mm 6 m/s 752 mmHg 82%
    09:00 +21°C° 0 mm 5 m/s 752 mmHg 78%
    10:00 +22°C° 0 mm 5 m/s 753 mmHg 74%
    11:00 +23°C° 0 mm 4 m/s 753 mmHg 70%
    12:00 +23°C° 0.3 mm 4 m/s 753 mmHg 71%
    13:00 +23°C° 0.3 mm 5 m/s 753 mmHg 71%
    14:00 +23°C° 0.3 mm 5 m/s 753 mmHg 72%
    15:00 +22°C° 0.2 mm 6 m/s 753 mmHg 75%
    16:00 +21°C° 0.2 mm 6 m/s 753 mmHg 77%
    17:00 +20°C° 0.2 mm 6 m/s 753 mmHg 80%
    18:00 +19°C° 0 mm 6 m/s 754 mmHg 82%
    19:00 +17°C° 0 mm 6 m/s 754 mmHg 83%
    20:00 +16°C° 0 mm 6 m/s 755 mmHg 85%
    21:00 +15°C° 0 mm 6 m/s 755 mmHg 85%
    22:00 +14°C° 0 mm 6 m/s 755 mmHg 85%
    23:00 +13°C° 0 mm 6 m/s 756 mmHg 86%
    Voir plus